RH
11 10 11 13 12 28 95 100 90 68 40 37 41 45 77 76 67 72 86 100 89 100 99 100 100 100 100 100 46 31 37 22 21 21 30 44 58 74 86 33 49 65 84 95 42 48 62 90 77 61 62 81 98 100
14 16 16 16 20 87 98 100 88 46 43 34 51 70 73 80 99 91 100 96 98 100 100 100 100 100 100 100 96 48 38 36 32 24 29 44 65 78 90 40 36 55 81 93 84 46 47 74 69 55 57 80 94 100
19 20 20 19 40 100 94 99 99 53 38 33 46 70 51 86 68 99 100 100 100 99 100 100 98 100 100 100 76 56 43 38 38 40 37 44 68 81 88 56 39 46 67 90 96 68 49 50 80 84 74 83 92 95
22 23 22 22 30 98 100 100 97 54 40 34 34 70 35 95 100 100 93 94 100 100 100 92 79 97 100 100 93 64 54 46 40 45 40 49 70 79 82 82 51 52 56 91 94 100 62 47 50 81 90 95 98 88
25 25 25 27 26 47 98 92 93 70 34 28 34 49 71 100 100 100 100 100 100 100 93 100 100 100 100 100 98 83 66 55 59 44 43 60 78 75 78 91 59 56 58 78 96 95 99 78 42 45 72 94 92 81
27 27 27 30 27 26 88 82 77 50 36 32 32 35 79 99 100 99 100 100 100 100 100 100 100 100 100 100 100 96 76 64 54 53 48 59 78 73 74 92 89 60 60 74 85 99 96 100 95 40 40 57 91 100
20 18 18 24 28 25 35 75 55 52 53 33 28 34 96 100 100 100 96 100 100 100 100 100 100 100 100 100 100 94 73 70 63 48 38 46 74 78 68 81 100 78 62 62 87 100 98 98 98 98 52 39 43 64
55 28 18 16 21 22 27 80 71 45 38 33 40 42 100 100 100 100 100 100 100 100 100 100 99 100 100 100 100 99 88 92 63 37 29 34 58 74 58 92 99 79 65 64 70 100 100 100 99 99 99 95 42 36
24 21 24 19 14 18 30 71 69 51 36 38 40 92 100 100 100 100 100 100 100 100 100 100 100 100 100 100 100 100 96 100 72 47 47 56 64 58 71 99 98 91 68 65 65 80 100 100 99 99 98 99 100 91
32 27 22 19 15 13 34 47 61 53 43 34 52 90 99 100 100 100 100 100 100 100 100 98 100 100 92 100 100 100 100 92 64 54 46 39 36 68 71 95 98 100 98 73 68 63 82 98 89 90 89 98 98 100
39 25 26 22 16 12 12 35 48 42 32 36 50 91 100 100 100 100 100 100 98 94 100 98 93 97 100 100 100 100 100 99 87 66 50 32 44 76 90 100 99 95 99 79 62 51 60 82 83 81 82 84 98 99
91 32 26 27 16 12 9 33 46 37 32 38 54 94 100 100 100 100 100 94 87 100 100 86 92 91 99 100 100 99 96 90 75 61 56 35 50 79 89 96 95 98 96 80 54 49 61 67 78 78 82 84 97 98
54 27 23 33 34 16 22 37 39 43 35 48 51 96 100 100 100 100 85 57 72 98 100 100 96 97 98 100 81 87 86 88 76 61 46 54 74 88 89 92 94 95 93 82 73 60 57 62 76 78 83 87 100 99
36 40 40 30 26 34 40 36 32 41 46 56 66 100 100 99 100 81 72 59 77 100 100 100 100 100 98 89 100 97 85 75 60 39 50 77 78 78 82 90 94 96 91 82 74 67 64 74 78 80 90 96 98 100
24 28 36 40 36 27 26 24 22 28 31 47 98 100 99 97 100 98 89 94 100 100 100 100 100 100 100 100 86 79 74 61 51 75 91 92 87 79 76 84 94 94 85 81 76 76 78 77 80 85 97 100 100 100
27 23 22 26 32 33 32 22 19 22 35 69 95 97 100 100 100 100 100 100 100 100 100 100 100 100 96 82 81 71 50 51 74 83 76 86 97 91 86 95 100 98 89 85 80 81 82 92 100 100 99 100 100 100
30 31 26 21 22 24 26 19 16 19 34 81 93 98 99 100 100 100 100 100 100 100 100 100 100 100 96 87 84 78 78 77 85 81 80 84 82 88 92 100 100 100 96 92 90 87 96 100 100 100 100 100 99 100
27 27 26 24 22 20 25 23 25 38 58 69 96 100 100 100 100 100 100 100 100 100 100 100 100 100 92 86 80 78 77 86 92 85 82 98 100 100 100 100 100 100 100 100 100 100 100 100 100 100 100 100 99 100
23 23 25 24 19 16 20 27 26 28 53 95 100 100 100 100 100 96 99 100 100 100 100 100 100 98 99 94 91 88 89 85 84 78 86 100 100 100 100 100 100 100 100 100 100 100 100 100 100 100 100 99 98 100
19 19 21 20 18 18 23 24 22 29 80 100 100 100 100 100 100 100 100 100 100 100 100 100 98 100 100 98 91 87 90 92 95 99 100 100 97 100 100 100 100 100 100 100 100 100 100 100 100 100 100 100 100 100
18 16 16 17 15 21 65 91 90 100 100 100 100 100 100 100 100 100 100 100 100 100 100 100 100 100 94 94 95 92 91 92 87 90 90 88 86 87 91 95 98 100 100 100 100 100 100 100 100 100 100 100 100 100
19 16 14 13 14 14 33 100 100 99 100 99 100 100 100 100 100 100 99 100 100 100 100 100 100 100 100 96 92 91 88 85 82 84 87 89 90 89 88 86 86 89 88 91 96 98 99 98 97 96 95 91 82 69
29 22 16 13 11 12 14 46 96 100 100 100 100 100 100 100 97 98 99 99 99 100 100 100 100 100 100 99 91 81 74 70 72 75 84 89 86 92 93 91 91 87 83 84 81 83 85 85 84 81 75 63 51 46
30 27 24 19 15 12 12 12 34 96 100 100 100 100 100 100 93 98 100 100 100 100 100 100 100 100 100 93 84 84 83 79 78 84 82 87 86 84 83 80 77 75 73 69 65 61 57 55 56 56 53 51 48 46
34 32 25 22 20 17 13 11 10 18 69 100 100 100 100 100 100 100 100 100 100 100 100 100 94 95 89 86 86 89 84 77 71 65 70 76 80 79 79 76 72 67 62 58 59 60 57 54 52 49 47 43 39 36
55 38 32 28 22 20 18 16 13 10 9 12 49 97 100 100 100 100 100 100 99 99 96 93 93 92 97 88 76 73 77 83 82 78 75 73 71 71 71 70 66 65 65 62 59 57 53 48 44 39 35 30 25 20
68 56 43 40 33 25 19 18 16 15 13 10 9 11 38 80 92 94 97 100 100 100 100 99 94 93 92 90 94 98 94 87 83 77 73 67 63 61 59 57 52 42 37 34 30 23 18 15 14 12 11 9 8 7
74 75 58 62 49 39 28 22 18 16 16 15 15 13 10 9 11 20 38 60 81 89 92 93 90 95 98 98 96 91 85 77 72 65 59 51 35 30 17 12 9 8 8 8 7 7 7 7 7 7 6 6 6 6
79 91 66 67 48 38 36 29 24 20 17 16 15 15 15 15 14 12 11 9 9 8 8 9 10 11 12 11 12 10 8 9 7 8 7 6 7 7 8 8 8 8 8 8 8 7 7 7 6 6 5 5 4 4
81 76 82 84 84 88 88 59 47 32 25 21 18 16 15 15 14 14 14 14 14 13 13 12 11 11 10 10 10 10 9 9 9 9 9 10 10 9 9 8 8 7 6 6 5 5 4 4 4 5 6 6 8 11
71 82 92 93 86 88 92 99 94 87 81 64 41 30 24 20 16 15 14 14 13 13 13 12 12 12 12 11 11 11 10 10 10 9 8 7 7 6 6 5 5 5 5 4 5 6 7 8 11 15 25 38 50 57
62 66 69 74 79 86 90 90 95 96 94 90 92 89 85 76 61 43 28 21 19 17 15 14 13 12 11 10 10 9 8 8 7 7 7 7 7 7 7 7 8 9 10 12 17 25 33 44 56 64 74 79 82 83
72 70 69 65 59 57 57 60 66 71 73 74 84 92 97 98 100 96 75 54 39 28 24 22 20 18 16 14 13 12 12 12 12 13 13 15 16 18 20 24 36 48 61 76 91 97 97 95 92 88 87 87 87 87
Wind_Speed
45 44 41 39 38 36 40 40 32 32 27 28 27 31 32 30 26 28 38 39 52 44 39 39 42 38 53 49 53 53 52 51 43 34 30 27 25 22 19 16 17 18 19 12 12 10 11 12 4 7 6 4 2 6
41 40 39 35 34 37 36 40 34 32 31 31 25 25 28 23 21 23 34 21 50 40 32 37 46 48 52 53 51 51 53 48 43 36 31 28 26 23 20 16 15 15 17 14 9 8 8 10 8 3 2 2 2 3
40 39 38 36 37 42 38 39 38 37 33 29 24 28 31 27 32 30 27 36 42 25 32 38 46 48 42 53 56 53 51 47 41 37 34 31 28 24 22 16 15 15 15 15 11 8 7 7 6 4 2 2 2 4
39 39 38 38 39 42 40 41 42 36 32 26 17 30 32 27 22 32 32 56 38 27 34 40 50 51 48 48 55 53 50 46 42 38 36 33 29 27 24 20 16 17 14 15 12 9 6 5 6 4 3 3 5 8
39 39 38 40 40 42 48 42 40 40 32 27 20 28 34 24 29 32 44 44 25 24 34 39 43 49 49 51 52 51 49 46 42 39 37 34 30 30 29 25 18 18 14 14 14 11 6 5 5 7 5 1 1 7
37 36 36 37 39 41 45 48 43 38 34 26 21 24 29 24 21 31 40 40 28 18 31 36 42 50 54 48 49 49 47 46 44 39 38 35 31 33 31 25 24 19 16 17 14 14 12 5 7 7 7 8 5 5
36 35 36 36 39 42 46 49 44 42 35 30 16 24 32 19 20 32 30 39 25 27 30 29 36 43 48 49 48 49 47 45 41 41 39 35 35 36 34 26 27 24 20 18 14 15 13 12 7 8 9 9 11 11
31 36 36 35 37 42 42 46 45 38 36 37 20 17 29 18 29 31 29 27 24 26 28 27 32 42 48 52 45 45 46 43 41 40 38 37 39 39 33 28 32 27 24 21 17 15 14 13 14 11 11 11 12 12
29 29 32 34 34 38 41 43 45 37 34 29 19 22 29 21 22 37 35 27 19 23 27 25 30 39 43 41 40 40 41 38 39 38 36 37 37 37 32 37 36 29 28 25 22 19 17 16 16 17 15 14 14 14
26 27 24 26 32 37 43 45 47 39 33 28 23 21 28 19 24 32 42 39 30 24 25 26 33 40 37 42 41 38 38 39 37 35 35 37 33 30 33 37 38 33 32 30 27 25 21 20 20 19 20 17 16 15
18 21 23 23 25 36 40 41 44 38 33 28 24 21 24 16 26 27 31 34 34 30 25 30 37 39 38 41 41 40 37 36 36 35 36 34 29 28 31 36 39 37 34 32 28 27 25 23 23 21 21 20 20 18
12 11 11 12 18 30 37 43 45 42 34 26 26 23 23 20 17 26 32 32 31 26 20 34 37 37 36 37 37 37 35 35 35 33 34 33 27 26 30 36 38 35 34 33 29 28 27 26 25 23 22 21 21 20
8 7 8 8 12 24 33 39 45 38 37 33 26 23 29 25 23 28 38 33 24 19 21 32 41 42 39 33 31 30 31 30 29 29 31 28 26 28 32 33 32 35 34 33 32 31 31 29 27 25 23 20 20 20
5 6 6 9 16 22 29 36 38 43 38 35 27 27 32 34 22 26 35 35 27 22 22 34 33 34 32 29 28 28 28 28 30 29 29 26 27 31 34 32 31 33 31 30 32 32 31 29 28 26 24 20 20 21
3 7 9 11 16 21 25 31 43 46 41 35 30 28 30 36 25 22 30 34 27 26 25 29 29 31 30 30 31 29 27 27 25 26 21 22 26 29 33 34 32 28 27 29 29 28 27 25 25 25 25 22 21 21
3 6 9 13 16 20 25 37 45 43 40 36 30 26 33 27 31 26 33 30 26 26 22 28 28 29 29 32 30 27 25 26 20 17 20 21 20 25 27 29 25 23 23 24 24 25 24 22 22 23 25 23 22 23
3 6 8 12 16 20 23 36 42 40 41 35 29 26 30 27 28 29 25 29 23 25 30 27 26 29 28 26 23 23 21 21 18 14 14 15 17 19 21 20 18 20 21 21 22 23 23 22 24 24 23 22 20 21
2 4 8 12 17 20 24 38 42 40 37 30 29 23 25 20 19 27 27 23 25 25 28 28 30 27 23 21 19 20 21 20 18 15 15 13 13 14 15 15 14 14 16 18 19 21 20 19 22 22 21 19 20 21
3 5 7 10 13 18 25 39 42 40 36 34 30 26 20 21 21 21 22 24 26 28 31 28 30 28 25 23 19 20 18 15 17 18 19 18 15 13 13 13 12 12 12 12 14 16 18 19 19 19 18 19 19 20
6 8 9 11 14 22 26 31 37 41 40 38 32 32 26 25 28 31 31 32 30 28 28 28 28 27 25 23 21 18 18 18 18 18 19 20 20 19 17 15 12 13 15 13 12 12 14 14 15 18 20 21 22 23
6 8 11 13 16 23 29 32 37 43 41 41 31 38 34 33 32 29 28 29 25 25 23 27 28 27 25 22 21 19 19 19 19 20 20 20 20 19 20 20 22 23 22 22 22 23 23 22 22 23 24 26 27 30
6 8 10 13 15 20 25 30 35 40 40 36 38 38 39 37 35 34 32 30 29 27 27 26 26 26 26 25 24 24 21 20 20 21 23 22 22 23 24 24 25 26 27 28 28 28 28 28 27 27 28 29 30 32
5 7 10 13 15 18 21 25 30 34 40 40 37 38 39 39 38 36 32 29 29 31 31 30 28 27 25 24 23 24 24 25 27 26 24 25 26 28 29 29 30 31 31 32 33 34 34 35 36 37 37 38 40 41
6 7 8 9 12 14 17 20 25 29 34 39 43 40 39 40 39 38 36 34 31 29 30 31 32 31 30 28 27 27 27 29 31 31 32 33 34 35 35 36 37 39 39 39 40 41 42 43 44 44 44 44 45 46
10 9 9 9 11 13 16 18 21 24 26 29 34 41 45 41 41 41 40 38 38 38 37 34 33 32 32 32 33 34 35 36 35 35 37 39 40 41 43 44 45 46 46 47 47 45 45 45 45 46 46 46 47 48
12 11 8 10 11 12 16 18 20 21 23 25 27 30 38 46 46 42 38 39 40 40 40 39 37 34 36 37 37 38 39 40 40 41 41 41 42 43 45 46 47 47 45 45 46 44 44 44 44 45 46 46 47 49
6 7 9 11 11 15 17 19 21 22 23 24 26 27 29 33 37 41 45 46 45 43 41 40 41 41 42 42 42 43 42 42 42 42 43 44 45 46 46 44 43 41 41 41 42 42 42 42 44 45 47 49 49 50
9 5 6 8 10 13 15 19 22 24 26 26 27 27 28 29 30 31 33 35 36 38 40 43 46 47 47 47 46 46 46 46 46 44 42 42 41 41 40 40 39 38 40 41 42 43 43 45 45 46 46 47 47 47
4 5 4 6 7 9 12 16 18 21 25 27 28 30 31 31 31 31 31 31 32 33 34 35 34 34 34 34 35 36 36 36 35 36 37 37 38 38 38 38 39 40 41 41 42 43 44 43 43 42 42 41 41 41
5 5 5 5 4 4 4 7 11 16 20 23 26 28 30 32 33 34 34 34 34 33 32 31 30 31 31 31 31 30 31 31 33 35 36 36 37 37 37 37 38 38 38 39 39 39 39 39 39 39 38 38 37 36
1 2 2 3 3 3 3 3 2 3 6 11 17 20 24 28 32 33 35 35 36 35 35 35 35 35 34 33 33 33 34 35 35 35 35 35 34 34 34 34 35 36 37 37 37 36 36 36 35 34 32 29 28 27
10 10 9 8 8 7 7 5 5 4 4 4 7 10 12 15 17 22 27 30 33 34 35 35 35 35 35 34 33 33 33 32 32 31 31 30 30 31 32 33 34 34 34 34 32 31 30 28 26 24 23 23 23 24
14 14 13 13 14 15 15 14 13 12 10 9 7 7 8 10 12 12 16 19 22 24 25 27 28 29 30 29 29 28 27 27 27 26 26 27 28 28 28 27 26 24 22 20 19 19 20 20 20 21 22 24 25 27
Wind_Direction
270 268 264 260 255 247 235 238 236 238 233 255 259 249 245 252 266 284 247 232 224 203 223 224 218 215 208 216 216 220 226 232 235 236 242 243 255 267 277 293 309 326 340 337 342 343 353 1 314 276 286 315 331 70
268 265 262 258 250 242 236 234 232 224 239 249 249 230 231 255 264 266 224 238 219 218 235 234 215 213 208 219 213 219 224 227 230 231 236 239 247 259 266 280 295 313 332 341 331 345 340 351 360 0 261 297 314 162
267 264 261 257 241 232 235 232 229 225 233 249 248 215 243 241 252 221 233 232 209 222 220 209 205 209 210 210 215 216 222 224 225 227 231 235 241 250 262 268 281 297 314 333 335 324 322 317 339 337 275 285 306 216
267 265 262 254 238 231 230 230 224 225 232 241 248 215 232 238 216 220 226 210 213 213 214 207 206 210 210 214 213 214 218 219 221 223 228 232 239 244 256 255 272 281 295 316 329 331 295 308 294 303 328 300 247 202
269 265 258 250 241 229 226 227 225 223 230 241 249 218 223 248 221 210 197 198 206 230 224 214 214 209 211 215 214 213 215 217 220 222 228 231 236 241 250 250 259 272 281 298 314 314 312 278 283 274 267 297 314 190
269 262 256 249 240 231 222 222 221 214 223 236 232 217 212 212 212 210 214 209 205 234 231 217 210 208 212 210 210 213 214 217 220 220 227 230 233 237 244 246 249 259 271 283 298 304 300 286 261 262 259 252 227 214
267 263 256 247 239 233 226 218 218 220 223 225 212 212 214 213 204 207 205 218 216 233 216 222 212 208 207 209 210 212 213 216 219 222 226 232 234 236 243 245 249 245 255 274 287 297 295 292 278 257 255 246 240 231
266 260 255 248 238 230 224 210 212 214 217 218 218 222 219 198 195 195 202 200 206 208 208 215 205 209 214 209 208 213 216 216 221 224 229 234 236 239 240 244 249 248 251 259 273 282 293 300 290 282 261 253 243 237
266 263 254 245 236 227 219 205 208 209 201 204 207 213 199 187 191 195 201 206 206 204 205 211 206 204 203 203 206 211 212 221 222 224 229 234 238 241 246 246 250 249 250 255 262 268 276 292 293 282 274 259 252 244
267 263 260 253 237 223 215 208 208 206 198 205 209 220 198 181 189 200 213 212 214 220 220 214 204 198 202 201 204 209 216 219 223 225 230 237 243 248 249 246 247 245 253 248 255 264 266 278 287 280 273 265 252 249
281 259 259 259 238 218 213 208 205 200 193 198 203 215 187 189 204 202 208 210 212 215 220 211 201 199 202 205 206 215 216 219 223 226 236 243 246 249 250 247 247 245 252 246 250 258 263 270 280 277 272 264 256 250
286 269 265 253 222 208 205 198 199 194 185 193 195 214 180 172 195 204 211 212 208 203 201 201 202 197 196 201 200 205 213 222 229 232 243 250 251 252 248 247 248 240 246 243 246 255 259 267 274 272 270 261 255 251
287 273 244 211 190 188 192 196 195 195 191 201 208 201 179 178 184 204 205 208 197 191 194 194 195 191 196 198 210 217 223 228 234 241 249 256 251 245 247 250 244 242 245 243 245 252 259 267 272 270 263 259 255 249
271 248 231 198 195 195 199 196 196 195 194 195 208 180 177 189 178 195 200 202 204 199 188 183 188 193 200 205 209 214 224 236 242 247 253 251 244 239 244 249 246 244 246 247 248 253 259 266 270 264 259 254 252 251
252 228 216 205 191 187 186 185 186 189 201 197 194 181 180 194 182 192 196 197 197 198 169 170 178 188 196 203 213 219 226 235 240 246 242 240 238 239 242 248 248 246 242 242 247 252 257 259 258 254 255 253 253 251
244 220 206 203 199 197 191 179 182 189 188 194 191 180 172 183 190 182 186 190 192 184 169 181 174 177 187 202 208 217 228 237 235 237 236 231 232 232 237 245 248 241 241 242 245 249 251 248 246 246 243 247 257 259
215 204 198 193 191 187 187 178 177 180 186 191 182 174 184 179 188 187 186 198 198 192 189 184 182 188 196 203 208 218 227 234 234 236 232 228 228 231 235 244 244 239 238 238 240 243 244 243 243 246 249 249 254 263
188 174 170 162 161 168 182 175 170 176 184 188 181 178 167 161 173 187 189 191 201 200 189 191 188 189 194 203 208 218 229 231 220 218 225 220 219 222 230 241 245 239 238 239 240 240 238 247 245 247 253 257 261 266
159 156 158 152 152 159 175 176 175 178 183 180 180 175 165 174 174 184 186 186 184 190 197 198 195 195 198 205 209 218 219 216 211 210 210 210 219 229 228 227 229 222 218 228 235 239 241 240 240 248 256 259 260 264
160 155 155 156 156 171 175 178 180 180 182 182 182 172 176 174 171 177 173 171 172 175 181 196 199 201 205 208 213 215 208 203 203 210 219 228 236 244 243 238 233 233 231 224 225 233 234 234 237 242 246 248 250 254
165 161 163 165 169 173 174 175 180 186 187 186 180 186 178 174 172 167 174 180 183 184 186 189 192 195 202 208 213 216 218 218 221 226 230 236 243 249 253 254 253 248 245 246 247 251 256 262 266 267 267 268 270 273
162 169 171 172 174 175 178 178 182 187 188 190 194 193 196 196 191 188 183 186 187 187 193 201 204 205 209 215 221 226 231 233 233 236 242 246 247 248 250 251 255 259 264 265 267 270 273 275 276 278 279 281 282 282
167 170 174 174 178 181 180 181 186 189 194 194 196 199 201 203 207 210 213 213 213 208 202 200 202 205 211 221 229 233 235 239 244 246 246 248 250 248 248 251 254 255 258 261 266 271 277 280 282 282 283 283 283 283
208 198 189 182 184 186 187 189 190 194 196 200 202 203 205 207 210 213 212 211 215 214 212 219 220 221 224 227 230 234 237 242 245 246 249 249 252 254 256 258 261 263 265 266 269 272 274 276 277 277 278 279 280 280
219 217 208 205 198 193 194 194 195 200 202 201 203 206 206 207 209 211 208 210 210 211 214 222 228 228 228 230 233 236 239 243 248 253 255 258 259 260 261 264 266 267 270 273 273 274 275 275 276 277 277 278 279 280
225 218 223 213 211 209 204 201 201 202 204 207 209 209 210 213 213 212 212 215 219 221 225 229 232 232 228 235 238 239 240 245 249 252 256 259 262 266 268 269 270 270 271 272 273 274 274 275 276 277 278 279 280 282
182 197 203 212 212 216 216 217 213 211 210 210 211 212 216 219 220 222 224 224 221 217 219 224 230 232 234 238 241 243 245 248 252 255 259 264 266 268 270 272 271 271 272 272 273 274 275 277 279 281 283 284 285 286
121 125 174 185 203 219 223 223 222 221 219 217 216 216 217 219 221 223 226 229 230 231 233 235 236 236 236 239 243 248 253 256 258 260 261 263 264 265 266 268 270 272 274 276 278 280 282 282 282 282 283 283 283 284
276 301 262 246 241 231 229 231 232 230 229 228 227 226 225 225 224 225 226 227 228 229 230 232 234 237 239 240 242 243 244 246 249 253 257 259 260 262 265 268 272 274 276 277 278 279 280 282 283 283 283 283 284 284
151 172 168 176 172 174 207 224 234 236 235 234 233 233 233 233 232 232 232 234 235 235 236 236 238 239 240 242 245 248 251 253 255 255 257 260 262 265 267 269 271 273 275 276 278 278 279 279 279 279 280 281 281 283
155 151 161 167 168 164 156 149 168 216 233 232 233 232 233 233 233 234 235 236 237 238 239 240 242 243 245 246 248 249 252 254 256 258 260 262 264 266 268 270 271 271 272 272 272 273 274 274 275 276 277 279 282 284
257 252 250 251 251 248 247 238 232 223 207 212 219 219 222 225 228 234 236 236 236 236 236 238 239 242 244 245 248 251 253 255 256 258 259 260 260 261 262 262 263 264 266 267 269 271 271 271 273 275 277 280 284 289
245 246 256 271 274 263 255 250 246 244 241 236 231 225 223 224 222 232 235 231 229 229 230 233 235 238 239 240 241 242 244 247 250 252 254 255 256 257 257 258 260 262 263 264 262 262 265 268 273 278 283 287 291 295